Regional Weather Roundup
Issued by NWS Upton, NY

Current Version | Previous Version | Graphics & Text | Print | Product List | Glossary Off
Versions: 1 2 3 4 5 6 7 8 9 10 11 12 13 14 15 16 17 18 19 20 21 22 23 24 25 26 27

000
ASUS41 KOKX 042308
RWROKX

REGIONAL WEATHER ROUNDUP
NATIONAL WEATHER SERVICE NEW YORK NY
600 PM EST SUN DEC 04 2016

NOTE: "FAIR" INDICATES FEW OR NO CLOUDS BELOW 12,000 FEET WITH NO
SIGNIFICANT WEATHER AND/OR OBSTRUCTIONS TO VISIBILITY.

NYZ071-072-176-178-NJZ106-104-050000-
NEW YORK CITY METRO AREA

CITY           SKY/WX    TMP DP  RH WIND       PRES   REMARKS
Central Park   PTCLDY    42  21  43 NE3       30.21S
Wall St Helipt CLOUDY    45  26  47 NE6       30.20S
Bronx Bot Gard NOT AVBL
LaGuardia APRT MOCLDY    45  23  42 NE8       30.20R
Kennedy INTL   MOCLDY    41  21  44 E5        30.21R
Breezy Point     N/A     41 N/A N/A NE7         N/A
Newark/Liberty MOCLDY    42  22  44 NE6       30.19R
Teterboro      CLOUDY    43  21  41 CALM      30.19R
$$

NYZ177-179-078>081-050000-
LONG ISLAND NEW YORK

CITY           SKY/WX    TMP DP  RH WIND       PRES   REMARKS
Jones Beach      N/A     41 N/A N/A E5          N/A
Matinecock PT  NOT AVBL
Farmingdale    PTCLDY    37  22  54 E5        30.20S WCI  33
MacArthur/ISP  MOCLDY    35  23  61 N6        30.19S WCI  30
Shirley        NOT AVBL
Westhampton    CLEAR     26  19  74 CALM      30.22R
Southampton    NOT AVBL
Bridgehampton  NOT AVBL
East Hampton     N/A     27  19  73 CALM      30.20S
Montauk          N/A     40  22  48 NW3       30.21R
$$

NYZ052-065-067-050000-
HUDSON VALLEY

CITY           SKY/WX    TMP DP  RH WIND       PRES   REMARKS
White Plains   CLOUDY    37  20  50 NE3       30.18R
Newburgh       MOCLDY    34  23  64 E8        30.20R WCI  27
Montgomery     PTCLDY    34  23  64 NE5       30.19R WCI  30
Poughkeepsie   CLOUDY    32  21  64 NE5       30.21R WCI  27
Albany         PTCLDY    29  19  66 CALM      30.23S
$$

NJZ001-105-106-008-010-013-015-019>022-104-050000-
NEW JERSEY

CITY           SKY/WX    TMP DP  RH WIND       PRES   REMARKS
Newark/Liberty MOCLDY    42  22  44 NE6       30.19R
Teterboro      CLOUDY    43  21  41 CALM      30.19R
Caldwell       CLOUDY    39  24  55 CALM      30.19S
Somerville     PTCLDY    37  25  61 CALM      30.16F
Linden           N/A    N/A N/A N/A CALM      30.19F
Sussex         CLOUDY    34  25  69 CALM      30.17S
Andover          N/A     35  25  66 CALM      30.17S
Trenton        PTCLDY    42  24  49 CALM      30.17F
Millville      CLOUDY    39  32  76 CALM      30.20F
Atlantic City  CLOUDY    41  28  60 SW3       30.20S
Wrightstown    NOT AVBL
Toms River     PTCLDY    36  31  82 CALM      30.20S
Belmar         PTCLDY    39  25  57 CALM      30.20S
$$

PAZ047>061-062-071-050000-
EASTERN PENNSYLVANIA

CITY           SKY/WX    TMP DP  RH WIND       PRES   REMARKS
Philadelphia   MOCLDY    44  26  49 S3        30.19F
Allentown      PTCLDY    42  23  46 NE5       30.16F
Scranton       MOCLDY    37  24  59 CALM      30.14F
$$

CTZ002-004>006-009-010-012-RIZ004-006-007-MAZ004-011-015-050000-
SOUTHERN NEW ENGLAND
 IN CT

CITY           SKY/WX    TMP DP  RH WIND       PRES   REMARKS
Bradley INTL   PTCLDY    32  19  58 W5        30.20R WCI  27
Hartford       CLEAR     36  20  52 NW7       30.20S WCI  30
Danbury        CLOUDY    29  21  72 CALM      30.20S
Wtrbury/Oxford CLEAR     30  16  55 CALM      30.20R
Bridgeport     PTCLDY    40  22  48 NW5       30.21R
Meriden        CLEAR     31  21  66 CALM      30.21R
New Haven      PTCLDY    31  22  69 N3        30.21R
Chester          N/A     34  19  55 CALM      30.19R
Groton         CLEAR     34  22  61 CALM      30.20R
Wilimantic     CLEAR     32  23  69 CALM      30.20R

 IN RI

CITY           SKY/WX    TMP DP  RH WIND       PRES   REMARKS
Providence     PTCLDY    36  19  50 W5        30.19R WCI  32
Block Island   CLEAR     37  22  54 NW5       30.20R WCI  33
Westerly       CLEAR     32  19  58 CALM      30.20R
 IN MA

CITY           SKY/WX    TMP DP  RH WIND       PRES   REMARKS
Boston         PTCLDY    39  19  44 N8        30.19R WCI  33
Worcester      CLEAR     32  17  54 N5        30.15S WCI  27
Westfield      CLEAR     28  23  81 CALM      30.19R
Provincetown   CLEAR     40  22  48 N10       30.17S WCI  33
Nantucket      CLEAR     36  23  59 N5        30.18R WCI  32
$$

ANZ330-335-338-340-345-350-353-355-050000-
COASTAL MARINE OBSERVATIONS


STATION/POSITION TIME  SKY/WX   TEMP    WIND        PRES    VSBY  WAVE
                                AIR SEA DIR/SP/G                  HT/PER
                 (UTC)          (F)     (DEG/KT/KT) (MB)    (MI)  (FT/S)
NY HARB ENTRANCE 2250            45 53   60/  6/  8 1022.7          1
20 S FIRE ISLAND 2150            43 53  340/  8/ 10 1022.5          2/ 4
GREAT SOUTH BAY  2230            41 44                N/A
23 SSW MONTAUK P 2250            42 55  340/  8/ 10 1023.0          2/ 8
15 E BARNEGAT LI 2230               54                N/A           2/ 8
HUDSON CANYON    2150            43 58              1022.7          3/ 5
KINGS POINT      2230            41 48              1022.4
EXECUTION ROCKS  2245            43      40/  8/ 12   N/A
CENTRAL LI SOUND 2245            42 51  330/  8/ 12   N/A           1/ 2
EASTERN LI SOUND NOT AVBL
ROBBINS REEF     2230            45      20/  6/  7 1022.6
$$


>>>>>>>>>>>>>>>>>>>>>>>>>>>> KEY <<<<<<<<<<<<<<<<<<<<<<<<<<<
>                                                          <
>     SKY/WX - Sky Condition/Present Weather               <
>     TMP    - Temperature in Fahrenheit                   <
>     DP     - Dew Point in Fahrenheit                     <
>     RH     - Relative Humidity in Percent                <
>     WIND   - Direction (from) and Speed in MPH           <
>     PRES   - Mean Sea Level Pressure (inches of Hg)      <
>     WCI    - Wind Chill Index                            <
>     VSB    - VISIBILITY IN MILES                         <
>     HX     - HEAT INDEX                                  <
>     TC     - TEMPERATURE IN CELSIUS                      <
>     VRB    - VARIABLE WIND DIRECTION                     <
>                                                          <
>>>>>>>>>>>>>>>>>>>>>>>>>>>> KEY <<<<<<<<<<<<<<<<<<<<<<<<<<<




USA.gov is the U.S. government's official web portal to all federal, state and local government web resources and services.